Location: Highland Park
(37.7977°N, 122.2275°W)
Time: 14:13:30
(UTC+00:00)

Daily predictions for brighter satellites

Satellite Brightness Start Highest point End
(mag) Time Altitude Azimuth Time Altitude Azimuth Time Altitude Azimuth
Cosmos 1933 Rocket 4.3 12:08:15 10° NNW 12:12:09 33° W 12:16:00 10° SSW
Cosmos 1867 3.8 12:08:25 10° NW 12:13:37 47° WSW 12:18:47 10° S
Intelsat 5-1 Rocket 4.1 12:11:09 10° SSW 12:14:24 19° SSE 12:19:59 10° ESE
AQUA 3.9 12:10:07 10° N 12:14:44 60° WNW 12:19:19 10° SSW
Cosmos 1400 Rocket 2.7 12:13:35 10° NNW 12:17:17 55° W 12:20:58 10° S
USA 307 4.2 12:17:29 10° W 12:19:11 13° SW 12:21:01 10° SSW
ADEOS II 3.3 12:15:41 10° NNW 12:19:54 25° WNW 12:24:07 10° WSW
Cosmos 1844 Rocket 4.4 12:17:04 10° W 12:20:39 17° NW 12:24:14 10° NNW
Cosmos 1833 Rocket 4.2 12:16:51 10° N 12:22:11 42° ENE 12:27:30 10° SE
Cosmos 1680 Rocket 4.0 12:17:28 10° S 12:22:35 61° ESE 12:27:42 10° NNE
SL-24 DEB 4.2 12:18:26 10° S 12:22:57 88° E 12:27:27 10° N
H-2A R/B 4.0 12:22:28 10° WSW 12:24:12 13° W 12:25:57 10° WNW
SL-08 RB Rocket 3.7 12:21:40 10° N 12:26:09 67° WNW 12:30:39 10° SSW
Resurs 1-4 Rocket 3.9 12:23:49 10° NNW 12:26:38 15° WNW 12:29:26 10° W
Cosmos 1603 4.2 12:22:46 10° NW 12:28:01 38° WSW 12:33:14 10° S
Cosmos 44 Rocket 3.7 12:29:51 10° NNW 12:35:02 75° ENE 12:40:03 10° SE
Cosmos 2366 rocket 4.1 12:32:29 10° N 12:38:49 84° W 12:45:10 10° S
